TimeEET,TemperatureF,Dew PointF,Humidity,Sea Level PressureIn,VisibilityMPH,Wind Direction,Wind SpeedMPH,Gust SpeedMPH,PrecipitationIn,Events,Conditions,WindDirDegrees,DateUTC
12:50 AM,50.0,48.2,94,30.04,5.6,Calm,Calm,-,N/A,,Scattered Clouds,0,2013-02-23 22:50:00
1:50 AM,69.8,48.2,46,30.06,5.0,WSW,4.6,-,N/A,,Scattered Clouds,250,2013-02-23 23:50:00
2:50 AM,50.0,46.4,87,30.04,5.0,Calm,Calm,-,N/A,,Mostly Cloudy,0,2013-02-24 00:50:00
3:50 AM,50.0,46.4,87,30.04,5.6,Calm,Calm,-,N/A,,Mostly Cloudy,0,2013-02-24 01:50:00
4:50 AM,48.2,44.6,87,30.04,5.6,Calm,Calm,-,N/A,,Mostly Cloudy,0,2013-02-24 02:50:00
5:20 AM,48.2,44.6,87,30.04,5.6,Calm,Calm,-,N/A,,Scattered Clouds,0,2013-02-24 03:20:00
5:50 AM,48.2,44.6,87,30.04,5.6,Calm,Calm,-,N/A,,Scattered Clouds,0,2013-02-24 03:50:00
6:20 AM,48.2,44.6,87,30.04,5.6,Calm,Calm,-,N/A,,Scattered Clouds,0,2013-02-24 04:20:00
6:50 AM,48.2,46.4,93,30.04,5.6,Calm,Calm,-,N/A,,Mostly Cloudy,0,2013-02-24 04:50:00
7:20 AM,48.2,46.4,93,30.04,5.0,Calm,Calm,-,N/A,,Scattered Clouds,0,2013-02-24 05:20:00
7:50 AM,50.0,46.4,87,30.04,4.3,Calm,Calm,-,N/A,,Mostly Cloudy,0,2013-02-24 05:50:00
8:20 AM,50.0,46.4,87,30.06,4.3,Calm,Calm,-,N/A,,Mostly Cloudy,0,2013-02-24 06:20:00
8:50 AM,53.6,51.8,94,30.06,5.0,Calm,Calm,-,N/A,,Scattered Clouds,0,2013-02-24 06:50:00
9:20 AM,55.4,51.8,88,30.06,5.0,Calm,Calm,-,N/A,,Scattered Clouds,0,2013-02-24 07:20:00
9:50 AM,57.2,51.8,82,30.04,5.0,ENE,4.6,-,N/A,,Partly Cloudy,70,2013-02-24 07:50:00
10:20 AM,57.2,51.8,82,30.04,5.0,ENE,4.6,-,N/A,,Scattered Clouds,70,2013-02-24 08:20:00
10:50 AM,59.0,51.8,77,30.04,6.2,ENE,8.1,-,N/A,,Scattered Clouds,70,2013-02-24 08:50:00
11:20 AM,59.0,51.8,77,30.04,6.2,East,10.4,-,N/A,,Scattered Clouds,80,2013-02-24 09:20:00
11:50 AM,59.0,51.8,77,30.04,6.2,ENE,9.2,-,N/A,,Scattered Clouds,60,2013-02-24 09:50:00
12:20 PM,60.8,51.8,72,30.04,6.2,NNE,11.5,-,N/A,,Scattered Clouds,30,2013-02-24 10:20:00
12:50 PM,60.8,50.0,68,30.04,6.2,ENE,11.5,-,N/A,,Partly Cloudy,70,2013-02-24 10:50:00
1:20 PM,60.8,50.0,68,30.04,6.2,ENE,11.5,-,N/A,,Partly Cloudy,60,2013-02-24 11:20:00
1:50 PM,62.6,50.0,63,30.01,6.2,ENE,11.5,-,N/A,,Partly Cloudy,70,2013-02-24 11:50:00
2:20 PM,60.8,50.0,68,29.98,6.2,East,11.5,-,N/A,,Partly Cloudy,90,2013-02-24 12:20:00
2:50 PM,60.8,51.8,72,29.98,6.2,East,13.8,-,N/A,,Partly Cloudy,90,2013-02-24 12:50:00
3:20 PM,60.8,51.8,72,29.98,6.2,East,13.8,-,N/A,,Partly Cloudy,100,2013-02-24 13:20:00
3:50 PM,60.8,51.8,72,29.98,6.2,East,12.7,-,N/A,,Partly Cloudy,90,2013-02-24 13:50:00
4:20 PM,62.6,51.8,68,29.98,6.2,East,9.2,-,N/A,,Partly Cloudy,80,2013-02-24 14:20:00
4:50 PM,62.6,51.8,68,29.98,6.2,East,12.7,-,N/A,,Scattered Clouds,100,2013-02-24 14:50:00
5:20 PM,60.8,51.8,72,29.98,6.2,ESE,11.5,-,N/A,,Scattered Clouds,110,2013-02-24 15:20:00
5:50 PM,60.8,51.8,72,29.98,6.2,ESE,11.5,-,N/A,,Scattered Clouds,110,2013-02-24 15:50:00
6:20 PM,59.0,51.8,77,29.98,6.2,East,11.5,-,N/A,,Scattered Clouds,100,2013-02-24 16:20:00
6:50 PM,59.0,51.8,77,29.98,6.2,East,13.8,-,N/A,,Partly Cloudy,100,2013-02-24 16:50:00
7:20 PM,57.2,51.8,82,29.98,6.2,ESE,8.1,-,N/A,,Partly Cloudy,120,2013-02-24 17:20:00
7:50 PM,57.2,51.8,82,29.98,6.2,East,8.1,-,N/A,,Partly Cloudy,100,2013-02-24 17:50:00
8:50 PM,59.0,48.2,67,29.98,6.2,ESE,8.1,-,N/A,,Partly Cloudy,110,2013-02-24 18:50:00
9:50 PM,59.0,48.2,67,29.98,6.2,ESE,15.0,-,N/A,,Partly Cloudy,120,2013-02-24 19:50:00
10:50 PM,59.0,48.2,67,30.01,6.2,SSW,4.6,-,N/A,,Partly Cloudy,200,2013-02-24 20:50:00
11:50 PM,55.4,48.2,77,30.01,6.2,South,15.0,-,N/A,,Partly Cloudy,170,2013-02-24 21:50:00